PTLCS SBMO-SBSL

Flight info

Callsign PTLCS
Flight time N/A
Altitude 18000
Route REGED DCT TNA UZ20 SLI
Aircraft BT36/L-BDFGLORY/S

Departure

Time 2026-04-22 18:15
Airport Zumbi dos Palmares International Airport (SBMO)

Arrival

Time N/A
Airport Marechal Cunha Machado International Airport (SBSL)
Time Latitude Longitude Altitude Speed Heading
2026-04-22 17:57 -9.51103 -35.80243 395 ft 0 kts 99°
2026-04-22 17:58 -9.51103 -35.80244 395 ft 0 kts 99°
2026-04-22 18:02 -9.51103 -35.80245 395 ft 0 kts 99°
2026-04-22 18:06 -9.51103 -35.80246 395 ft 0 kts 99°
2026-04-22 18:07 -9.51097 -35.80224 395 ft 8 kts 65°
2026-04-22 18:08 -9.51068 -35.80141 395 ft 17 kts 94°
2026-04-22 18:08 -9.51096 -35.79987 395 ft 27 kts 100°
2026-04-22 18:08 -9.51128 -35.79820 395 ft 25 kts 101°
2026-04-22 18:08 -9.51160 -35.79637 395 ft 26 kts 99°
2026-04-22 18:09 -9.51188 -35.79479 395 ft 26 kts 101°
2026-04-22 18:09 -9.51224 -35.79289 395 ft 28 kts 100°
2026-04-22 18:09 -9.51256 -35.79116 395 ft 26 kts 101°
2026-04-22 18:09 -9.51289 -35.78941 395 ft 26 kts 101°
2026-04-22 18:10 -9.51298 -35.78821 395 ft 15 kts 46°
2026-04-22 18:10 -9.51243 -35.78843 395 ft 5 kts 312°
2026-04-22 18:10 -9.51243 -35.78844 395 ft 0 kts 311°
2026-04-22 18:14 -9.51205 -35.78876 395 ft 10 kts 324°
2026-04-22 18:14 -9.51131 -35.78950 394 ft 16 kts 295°
2026-04-22 18:15 -9.51073 -35.79272 405 ft 80 kts 276°
2026-04-22 18:15 -9.50982 -35.79933 606 ft 104 kts 269°
2026-04-22 18:15 -9.50825 -35.80692 880 ft 120 kts 279°
2026-04-22 18:15 -9.50628 -35.81583 1142 ft 140 kts 277°
2026-04-22 18:16 -9.50422 -35.82583 1345 ft 149 kts 276°
2026-04-22 18:16 -9.50218 -35.83610 1612 ft 154 kts 277°
2026-04-22 18:16 -9.50009 -35.84699 1851 ft 162 kts 277°
2026-04-22 18:16 -9.49752 -35.85838 2080 ft 171 kts 288°
2026-04-22 18:17 -9.48966 -35.86738 2296 ft 176 kts 329°
2026-04-22 18:17 -9.47872 -35.87292 2563 ft 177 kts 334°
2026-04-22 18:17 -9.46776 -35.87862 2834 ft 178 kts 331°
2026-04-22 18:17 -9.45689 -35.88460 3099 ft 178 kts 330°
2026-04-22 18:18 -9.44608 -35.89055 3360 ft 175 kts 330°
2026-04-22 18:18 -9.43547 -35.89641 3621 ft 172 kts 329°
2026-04-22 18:18 -9.42490 -35.90224 3880 ft 174 kts 329°
2026-04-22 18:18 -9.41418 -35.90817 4165 ft 179 kts 329°
2026-04-22 18:19 -9.40301 -35.91436 4438 ft 187 kts 329°
2026-04-22 18:19 -9.39141 -35.92069 4706 ft 190 kts 331°
2026-04-22 18:19 -9.37990 -35.92694 4961 ft 185 kts 331°
2026-04-22 18:19 -9.36881 -35.93313 5213 ft 179 kts 332°
2026-04-22 18:20 -9.35800 -35.93912 5477 ft 175 kts 331°
2026-04-22 18:20 -9.34740 -35.94506 5738 ft 173 kts 332°
2026-04-22 18:20 -9.33684 -35.95084 6001 ft 173 kts 333°
2026-04-22 18:20 -9.32632 -35.95664 6268 ft 171 kts 332°
2026-04-22 18:21 -9.31587 -35.96241 6529 ft 171 kts 334°
2026-04-22 18:21 -9.30530 -35.96819 6778 ft 174 kts 334°
2026-04-22 18:21 -9.29467 -35.97407 7035 ft 174 kts 334°
2026-04-22 18:21 -9.28398 -35.97995 7286 ft 176 kts 334°
2026-04-22 18:22 -9.27320 -35.98587 7553 ft 177 kts 333°
2026-04-22 18:22 -9.26239 -35.99185 7818 ft 177 kts 333°
2026-04-22 18:22 -9.25152 -35.99784 8080 ft 178 kts 333°
2026-04-22 18:22 -9.24059 -36.00388 8347 ft 180 kts 333°
2026-04-22 18:23 -9.22972 -36.00986 8607 ft 181 kts 334°
2026-04-22 18:23 -9.21859 -36.01598 8878 ft 182 kts 333°
2026-04-22 18:23 -9.20743 -36.02214 9152 ft 183 kts 335°
2026-04-22 18:24 -9.18506 -36.03450 9711 ft 183 kts 334°
2026-04-22 18:24 -9.17390 -36.04064 9974 ft 182 kts 333°
2026-04-22 18:24 -9.15154 -36.05293 10475 ft 184 kts 335°
2026-04-22 18:25 -9.14026 -36.05916 10746 ft 185 kts 335°
2026-04-22 18:25 -9.12890 -36.06541 10996 ft 187 kts 334°
2026-04-22 18:25 -9.11748 -36.07170 11256 ft 187 kts 334°
2026-04-22 18:26 -9.09453 -36.08433 11781 ft 188 kts 334°
2026-04-22 18:26 -9.08303 -36.09066 12047 ft 188 kts 334°
2026-04-22 18:26 -9.07153 -36.09699 12313 ft 188 kts 334°
2026-04-22 18:26 -9.06376 -36.10128 12497 ft 189 kts 334°
2026-04-22 18:27 -9.05224 -36.10762 12769 ft 188 kts 334°
2026-04-22 18:27 -9.04088 -36.11387 13039 ft 189 kts 335°
2026-04-22 18:27 -9.02933 -36.12023 13315 ft 190 kts 335°
2026-04-22 18:27 -9.01775 -36.12659 13594 ft 189 kts 334°
2026-04-22 18:28 -9.00618 -36.13296 13859 ft 190 kts 334°
2026-04-22 18:28 -8.99459 -36.13936 14106 ft 189 kts 334°
2026-04-22 18:28 -8.98301 -36.14572 14354 ft 190 kts 334°
2026-04-22 18:28 -8.97143 -36.15209 14603 ft 190 kts 334°
2026-04-22 18:29 -8.95983 -36.15847 14861 ft 190 kts 334°
2026-04-22 18:29 -8.94872 -36.16571 15109 ft 193 kts 318°
2026-04-22 18:29 -8.94094 -36.17677 15367 ft 194 kts 301°
2026-04-22 18:29 -8.93424 -36.18863 15628 ft 194 kts 301°
2026-04-22 18:30 -8.92747 -36.20046 15890 ft 195 kts 302°
2026-04-22 18:30 -8.91390 -36.22426 16422 ft 196 kts 302°
2026-04-22 18:30 -8.90707 -36.23621 16691 ft 196 kts 302°
2026-04-22 18:31 -8.90027 -36.24815 16965 ft 195 kts 301°
2026-04-22 18:31 -8.89347 -36.26002 17243 ft 195 kts 302°
2026-04-22 18:31 -8.88671 -36.27189 17516 ft 194 kts 301°
2026-04-22 18:31 -8.87997 -36.28371 17793 ft 194 kts 302°
2026-04-22 18:32 -8.87316 -36.29558 17986 ft 200 kts 303°
2026-04-22 18:32 -8.86600 -36.30810 17995 ft 211 kts 302°
2026-04-22 18:32 -8.85849 -36.32118 17999 ft 219 kts 303°
2026-04-22 18:32 -8.85079 -36.33468 17999 ft 224 kts 301°
2026-04-22 18:33 -8.84303 -36.34841 17999 ft 226 kts 302°
2026-04-22 18:33 -8.83512 -36.36217 18001 ft 227 kts 303°
2026-04-22 18:33 -8.82716 -36.37605 18000 ft 229 kts 302°
2026-04-22 18:33 -8.81918 -36.39000 17999 ft 230 kts 302°
2026-04-22 18:34 -8.81123 -36.40406 18001 ft 231 kts 301°
2026-04-22 18:34 -8.80317 -36.41816 18004 ft 233 kts 302°
2026-04-22 18:34 -8.79502 -36.43232 18006 ft 233 kts 302°
2026-04-22 18:34 -8.78691 -36.44652 18008 ft 234 kts 301°
2026-04-22 18:35 -8.77878 -36.46076 18012 ft 234 kts 301°
2026-04-22 18:35 -8.77062 -36.47503 18007 ft 235 kts 301°
2026-04-22 18:35 -8.76245 -36.48933 18008 ft 235 kts 301°
2026-04-22 18:35 -8.75427 -36.50363 18008 ft 235 kts 301°
2026-04-22 18:36 -8.74610 -36.51790 18006 ft 235 kts 301°
2026-04-22 18:36 -8.73793 -36.53218 18006 ft 234 kts 301°
2026-04-22 18:36 -8.72979 -36.54642 18006 ft 234 kts 301°
2026-04-22 18:36 -8.72165 -36.56065 18005 ft 234 kts 301°
2026-04-22 18:37 -8.71352 -36.57486 18002 ft 234 kts 302°
2026-04-22 18:37 -8.70538 -36.58907 18002 ft 234 kts 302°
2026-04-22 18:37 -8.69715 -36.60329 18001 ft 235 kts 302°
2026-04-22 18:37 -8.68912 -36.61744 18003 ft 236 kts 302°
2026-04-22 18:38 -8.68091 -36.63185 18005 ft 238 kts 301°
2026-04-22 18:38 -8.67270 -36.64631 18002 ft 237 kts 302°
2026-04-22 18:38 -8.66436 -36.66062 17999 ft 237 kts 303°
2026-04-22 18:39 -8.64793 -36.68945 17999 ft 237 kts 303°
2026-04-22 18:39 -8.63973 -36.70386 17998 ft 236 kts 302°
2026-04-22 18:39 -8.63151 -36.71820 18000 ft 235 kts 302°
2026-04-22 18:39 -8.62318 -36.73245 17991 ft 236 kts 303°
2026-04-22 18:40 -8.61507 -36.74687 17990 ft 236 kts 300°
2026-04-22 18:40 -8.60693 -36.76122 17991 ft 235 kts 302°
2026-04-22 18:40 -8.59864 -36.77543 17992 ft 235 kts 302°
2026-04-22 18:40 -8.59040 -36.78966 17990 ft 235 kts 303°
2026-04-22 18:41 -8.58229 -36.80397 17990 ft 235 kts 301°
2026-04-22 18:41 -8.57416 -36.81828 17992 ft 235 kts 302°
2026-04-22 18:41 -8.56590 -36.83257 17996 ft 236 kts 302°
2026-04-22 18:41 -8.55762 -36.84697 17989 ft 237 kts 303°
2026-04-22 18:42 -8.54930 -36.86139 17987 ft 238 kts 303°
2026-04-22 18:42 -8.54107 -36.87586 17985 ft 237 kts 303°
2026-04-22 18:42 -8.53281 -36.89029 17985 ft 237 kts 303°
2026-04-22 18:42 -8.52454 -36.90469 17985 ft 237 kts 303°
2026-04-22 18:43 -8.51628 -36.91909 17987 ft 237 kts 303°
2026-04-22 18:43 -8.50802 -36.93348 17986 ft 236 kts 303°
2026-04-22 18:43 -8.49977 -36.94785 17981 ft 237 kts 303°
2026-04-22 18:43 -8.49152 -36.96223 17982 ft 237 kts 303°
2026-04-22 18:44 -8.48326 -36.97662 17985 ft 236 kts 303°
2026-04-22 18:44 -8.47500 -36.99101 17973 ft 237 kts 302°
2026-04-22 18:44 -8.46673 -37.00542 17975 ft 237 kts 303°
2026-04-22 18:44 -8.45846 -37.01984 17976 ft 237 kts 302°
2026-04-22 18:45 -8.45030 -37.03402 17975 ft 237 kts 303°
2026-04-22 18:45 -8.44195 -37.04857 17971 ft 236 kts 303°
2026-04-22 18:45 -8.43385 -37.06273 17971 ft 236 kts 302°
2026-04-22 18:45 -8.42560 -37.07703 17971 ft 235 kts 303°
2026-04-22 18:46 -8.41735 -37.09135 17971 ft 236 kts 303°
2026-04-22 18:46 -8.40912 -37.10573 17970 ft 237 kts 303°
2026-04-22 18:46 -8.40087 -37.12013 17970 ft 237 kts 302°
2026-04-22 18:46 -8.39269 -37.13453 17971 ft 236 kts 302°
2026-04-22 18:47 -8.38439 -37.14879 17969 ft 235 kts 302°
2026-04-22 18:47 -8.37616 -37.16305 17970 ft 235 kts 302°
2026-04-22 18:47 -8.36791 -37.17735 17969 ft 236 kts 301°
2026-04-22 18:47 -8.35976 -37.19170 17968 ft 235 kts 302°
2026-04-22 18:48 -8.35153 -37.20595 17968 ft 235 kts 302°
2026-04-22 18:48 -8.34327 -37.22017 17968 ft 236 kts 303°
2026-04-22 18:48 -8.33506 -37.23453 17967 ft 236 kts 303°
2026-04-22 18:48 -8.32685 -37.24887 17955 ft 236 kts 302°
2026-04-22 18:49 -8.31862 -37.26318 17954 ft 235 kts 302°
2026-04-22 18:49 -8.31039 -37.27747 17954 ft 235 kts 302°
2026-04-22 18:49 -8.30217 -37.29176 17954 ft 235 kts 302°
2026-04-22 18:49 -8.29395 -37.30605 17955 ft 235 kts 302°
2026-04-22 18:50 -8.28574 -37.32033 17955 ft 235 kts 302°
2026-04-22 18:50 -8.27752 -37.33459 17950 ft 235 kts 302°
2026-04-22 18:50 -8.26932 -37.34886 17949 ft 235 kts 302°
2026-04-22 18:50 -8.26111 -37.36312 17950 ft 235 kts 302°
2026-04-22 18:51 -8.25291 -37.37737 17949 ft 235 kts 302°
2026-04-22 18:51 -8.24470 -37.39163 17948 ft 235 kts 302°
2026-04-22 18:51 -8.23648 -37.40590 17949 ft 235 kts 302°
2026-04-22 18:51 -8.22825 -37.42019 17948 ft 235 kts 302°
2026-04-22 18:52 -8.22002 -37.43448 17947 ft 236 kts 302°
2026-04-22 18:52 -8.21179 -37.44878 17947 ft 236 kts 302°
2026-04-22 18:52 -8.20355 -37.46309 17948 ft 236 kts 302°
2026-04-22 18:52 -8.19531 -37.47739 17950 ft 236 kts 302°
2026-04-22 18:53 -8.18708 -37.49167 17948 ft 235 kts 302°
2026-04-22 18:53 -8.17886 -37.50593 17949 ft 235 kts 302°
2026-04-22 18:53 -8.17065 -37.52019 17948 ft 235 kts 302°
2026-04-22 18:53 -8.16243 -37.53444 17948 ft 235 kts 302°
2026-04-22 18:54 -8.15422 -37.54869 17946 ft 235 kts 302°
2026-04-22 18:54 -8.14601 -37.56293 17945 ft 235 kts 302°
2026-04-22 18:54 -8.13780 -37.57718 17945 ft 235 kts 302°
2026-04-22 18:54 -8.12958 -37.59143 17944 ft 235 kts 302°
2026-04-22 18:55 -8.12137 -37.60569 17945 ft 235 kts 302°
2026-04-22 18:55 -8.11326 -37.61973 17945 ft 235 kts 302°
2026-04-22 18:55 -8.10503 -37.63402 17945 ft 236 kts 302°
2026-04-22 18:55 -8.09677 -37.64834 17945 ft 236 kts 302°
2026-04-22 18:56 -8.08851 -37.66266 17946 ft 236 kts 302°
2026-04-22 18:56 -8.08025 -37.67697 17946 ft 236 kts 302°
2026-04-22 18:56 -8.07199 -37.69129 17947 ft 236 kts 302°
2026-04-22 18:56 -8.06374 -37.70559 17946 ft 236 kts 302°
2026-04-22 18:57 -8.05550 -37.71987 17943 ft 235 kts 302°
2026-04-22 18:57 -8.04727 -37.73413 17943 ft 235 kts 302°
2026-04-22 18:57 -8.03902 -37.74840 17945 ft 235 kts 303°
2026-04-22 18:57 -8.03079 -37.76267 17945 ft 235 kts 302°
2026-04-22 18:58 -8.02257 -37.77692 17945 ft 235 kts 302°
2026-04-22 18:58 -8.01434 -37.79118 17947 ft 235 kts 302°
2026-04-22 18:58 -8.00610 -37.80544 17946 ft 236 kts 302°
2026-04-22 18:58 -7.99785 -37.81973 17946 ft 236 kts 302°
2026-04-22 18:59 -7.98959 -37.83402 17945 ft 236 kts 302°
2026-04-22 18:59 -7.98135 -37.84831 17944 ft 236 kts 303°
2026-04-22 18:59 -7.97309 -37.86260 17944 ft 236 kts 303°
2026-04-22 18:59 -7.96484 -37.87688 17944 ft 236 kts 303°
2026-04-22 19:00 -7.95659 -37.89116 17944 ft 236 kts 303°
2026-04-22 19:00 -7.94834 -37.90545 17945 ft 236 kts 303°
2026-04-22 19:00 -7.94007 -37.91975 17944 ft 236 kts 303°
2026-04-22 19:00 -7.93181 -37.93404 17944 ft 236 kts 303°
2026-04-22 19:01 -7.92355 -37.94834 17945 ft 236 kts 303°
2026-04-22 19:01 -7.91530 -37.96263 17945 ft 236 kts 303°
2026-04-22 19:01 -7.90704 -37.97691 17945 ft 236 kts 302°
2026-04-22 19:01 -7.89880 -37.99117 17946 ft 235 kts 302°
2026-04-22 19:02 -7.89057 -38.00540 17943 ft 235 kts 302°
2026-04-22 19:02 -7.88235 -38.01960 17944 ft 234 kts 303°
2026-04-22 19:02 -7.87423 -38.03361 17943 ft 235 kts 302°
2026-04-22 19:02 -7.86591 -38.04804 17942 ft 235 kts 302°
2026-04-22 19:03 -7.85782 -38.06208 17942 ft 234 kts 302°
2026-04-22 19:03 -7.84959 -38.07626 17943 ft 234 kts 302°
2026-04-22 19:03 -7.84135 -38.09045 17943 ft 235 kts 303°
2026-04-22 19:03 -7.83314 -38.10468 17940 ft 235 kts 302°
2026-04-22 19:04 -7.82493 -38.11890 17940 ft 234 kts 302°
2026-04-22 19:04 -7.81666 -38.13311 17940 ft 235 kts 303°
2026-04-22 19:04 -7.80842 -38.14737 17940 ft 236 kts 303°
2026-04-22 19:04 -7.80017 -38.16166 17939 ft 235 kts 302°
2026-04-22 19:05 -7.79194 -38.17589 17943 ft 235 kts 302°
2026-04-22 19:05 -7.78367 -38.19013 17943 ft 236 kts 303°
2026-04-22 19:05 -7.77542 -38.20439 17943 ft 235 kts 302°
2026-04-22 19:05 -7.76719 -38.21862 17943 ft 235 kts 302°
2026-04-22 19:06 -7.75896 -38.23284 17940 ft 234 kts 302°
2026-04-22 19:06 -7.75074 -38.24702 17938 ft 234 kts 302°
2026-04-22 19:06 -7.74252 -38.26121 17937 ft 234 kts 302°
2026-04-22 19:07 -7.72606 -38.28961 17938 ft 235 kts 302°
2026-04-22 19:07 -7.71784 -38.30382 17937 ft 235 kts 302°
2026-04-22 19:07 -7.70960 -38.31803 17937 ft 235 kts 302°
2026-04-22 19:07 -7.70137 -38.33224 17937 ft 235 kts 302°
2026-04-22 19:08 -7.69313 -38.34645 17940 ft 234 kts 302°
2026-04-22 19:08 -7.68502 -38.36044 17940 ft 234 kts 302°
2026-04-22 19:08 -7.67669 -38.37482 17939 ft 234 kts 302°
2026-04-22 19:08 -7.66847 -38.38900 17940 ft 234 kts 302°
2026-04-22 19:09 -7.66024 -38.40319 17938 ft 234 kts 302°
2026-04-22 19:09 -7.65201 -38.41739 17937 ft 235 kts 302°
2026-04-22 19:09 -7.64656 -38.42678 17936 ft 235 kts 302°
2026-04-22 19:09 -7.63567 -38.44557 17937 ft 234 kts 302°
2026-04-22 19:10 -7.62732 -38.45995 17940 ft 235 kts 302°
2026-04-22 19:10 -7.61920 -38.47397 17943 ft 235 kts 302°
2026-04-22 19:10 -7.61096 -38.48818 17943 ft 235 kts 302°
2026-04-22 19:10 -7.60271 -38.50238 17942 ft 235 kts 302°
2026-04-22 19:11 -7.59448 -38.51657 17941 ft 234 kts 302°
2026-04-22 19:11 -7.58624 -38.53077 17940 ft 235 kts 302°
2026-04-22 19:11 -7.57799 -38.54499 17941 ft 235 kts 302°
2026-04-22 19:11 -7.56973 -38.55923 17940 ft 235 kts 302°
2026-04-22 19:12 -7.56147 -38.57345 17946 ft 235 kts 302°
2026-04-22 19:12 -7.55322 -38.58767 17944 ft 235 kts 302°
2026-04-22 19:12 -7.54496 -38.60188 17944 ft 235 kts 302°
2026-04-22 19:12 -7.53672 -38.61609 17945 ft 235 kts 302°
2026-04-22 19:13 -7.52847 -38.63030 17941 ft 235 kts 302°
2026-04-22 19:13 -7.52021 -38.64453 17942 ft 235 kts 302°
2026-04-22 19:13 -7.51195 -38.65875 17942 ft 235 kts 302°
2026-04-22 19:13 -7.50369 -38.67296 17937 ft 235 kts 302°
2026-04-22 19:14 -7.49544 -38.68717 17936 ft 235 kts 302°
2026-04-22 19:14 -7.48716 -38.70142 17937 ft 236 kts 302°
2026-04-22 19:14 -7.48166 -38.71088 17937 ft 237 kts 302°
2026-04-22 19:14 -7.47056 -38.73001 17936 ft 236 kts 302°
2026-04-22 19:15 -7.46506 -38.73948 17939 ft 236 kts 302°
2026-04-22 19:15 -7.45676 -38.75375 17939 ft 236 kts 302°
2026-04-22 19:15 -7.44846 -38.76802 17939 ft 236 kts 302°
2026-04-22 19:15 -7.44017 -38.78229 17938 ft 236 kts 302°
2026-04-22 19:16 -7.43189 -38.79654 17935 ft 235 kts 302°
2026-04-22 19:16 -7.42362 -38.81077 17934 ft 235 kts 302°
2026-04-22 19:16 -7.41535 -38.82499 17934 ft 235 kts 302°
2026-04-22 19:16 -7.40709 -38.83920 17934 ft 235 kts 302°
2026-04-22 19:17 -7.39883 -38.85340 17933 ft 235 kts 302°
2026-04-22 19:17 -7.39058 -38.86758 17933 ft 235 kts 302°
2026-04-22 19:17 -7.38232 -38.88178 17934 ft 235 kts 302°
2026-04-22 19:17 -7.37405 -38.89600 17933 ft 235 kts 302°
2026-04-22 19:18 -7.36579 -38.91021 17937 ft 235 kts 302°
2026-04-22 19:18 -7.35752 -38.92442 17936 ft 235 kts 302°
2026-04-22 19:18 -7.34925 -38.93862 17938 ft 235 kts 302°
2026-04-22 19:18 -7.34099 -38.95284 17938 ft 235 kts 302°
2026-04-22 19:19 -7.33272 -38.96705 17940 ft 235 kts 302°
2026-04-22 19:19 -7.32445 -38.98126 17941 ft 235 kts 302°
2026-04-22 19:19 -7.31617 -38.99548 17942 ft 235 kts 302°
2026-04-22 19:19 -7.30789 -39.00970 17943 ft 235 kts 302°
2026-04-22 19:20 -7.29962 -39.02392 17944 ft 235 kts 302°
2026-04-22 19:20 -7.29133 -39.03814 17945 ft 235 kts 302°
2026-04-22 19:20 -7.28306 -39.05235 17947 ft 235 kts 302°
2026-04-22 19:20 -7.27489 -39.06638 17948 ft 235 kts 302°
2026-04-22 19:21 -7.26662 -39.08059 17948 ft 235 kts 302°
2026-04-22 19:21 -7.25834 -39.09481 17950 ft 235 kts 302°
2026-04-22 19:21 -7.25006 -39.10902 17950 ft 235 kts 302°
2026-04-22 19:21 -7.24178 -39.12323 17953 ft 235 kts 302°
2026-04-22 19:22 -7.23351 -39.13744 17952 ft 235 kts 302°
2026-04-22 19:22 -7.22523 -39.15166 17953 ft 235 kts 302°
2026-04-22 19:22 -7.21693 -39.16588 17954 ft 235 kts 302°
2026-04-22 19:22 -7.20866 -39.18010 17955 ft 235 kts 302°
2026-04-22 19:23 -7.20036 -39.19432 17955 ft 235 kts 302°
2026-04-22 19:23 -7.19209 -39.20853 17955 ft 235 kts 302°
2026-04-22 19:23 -7.18381 -39.22274 17955 ft 235 kts 302°
2026-04-22 19:23 -7.17552 -39.23695 17955 ft 235 kts 302°
2026-04-22 19:24 -7.16724 -39.25115 17955 ft 235 kts 302°
2026-04-22 19:24 -7.15896 -39.26535 17955 ft 235 kts 302°
2026-04-22 19:24 -7.15067 -39.27957 17955 ft 235 kts 302°
2026-04-22 19:24 -7.14239 -39.29377 17955 ft 235 kts 302°
2026-04-22 19:25 -7.13410 -39.30798 17955 ft 235 kts 302°
2026-04-22 19:25 -7.12582 -39.32219 17955 ft 235 kts 302°
2026-04-22 19:25 -7.11751 -39.33642 17954 ft 236 kts 302°
2026-04-22 19:25 -7.10922 -39.35065 17954 ft 236 kts 302°
2026-04-22 19:26 -7.10092 -39.36487 17956 ft 236 kts 302°
2026-04-22 19:26 -7.09263 -39.37909 17949 ft 236 kts 302°
2026-04-22 19:26 -7.08431 -39.39334 17948 ft 236 kts 302°
2026-04-22 19:26 -7.07611 -39.40739 17954 ft 236 kts 302°
2026-04-22 19:27 -7.06780 -39.42163 17951 ft 236 kts 302°
2026-04-22 19:27 -7.05950 -39.43586 17952 ft 236 kts 302°
2026-04-22 19:27 -7.05118 -39.45011 17951 ft 236 kts 302°
2026-04-22 19:27 -7.04286 -39.46437 17952 ft 236 kts 302°
2026-04-22 19:28 -7.03453 -39.47863 17946 ft 236 kts 302°
2026-04-22 19:28 -7.02622 -39.49286 17949 ft 236 kts 302°
2026-04-22 19:28 -7.01792 -39.50708 17949 ft 236 kts 302°
2026-04-22 19:28 -7.00960 -39.52132 17948 ft 236 kts 302°
2026-04-22 19:29 -7.00129 -39.53555 17948 ft 236 kts 302°
2026-04-22 19:29 -6.99299 -39.54977 17948 ft 235 kts 302°
2026-04-22 19:29 -6.98470 -39.56397 17948 ft 235 kts 302°
2026-04-22 19:29 -6.97639 -39.57818 17949 ft 236 kts 302°
2026-04-22 19:30 -6.97090 -39.58759 17948 ft 236 kts 302°
2026-04-22 19:30 -6.95979 -39.60661 17947 ft 236 kts 302°
2026-04-22 19:30 -6.95149 -39.62081 17947 ft 235 kts 302°
2026-04-22 19:30 -6.94318 -39.63503 17949 ft 236 kts 302°
2026-04-22 19:31 -6.93487 -39.64926 17948 ft 236 kts 302°
2026-04-22 19:31 -6.92656 -39.66347 17947 ft 236 kts 302°
2026-04-22 19:31 -6.91826 -39.67767 17948 ft 235 kts 302°
2026-04-22 19:31 -6.90996 -39.69187 17948 ft 236 kts 302°
2026-04-22 19:32 -6.90165 -39.70608 17947 ft 236 kts 302°
2026-04-22 19:32 -6.89335 -39.72029 17939 ft 235 kts 302°
2026-04-22 19:32 -6.88503 -39.73450 17940 ft 236 kts 302°
2026-04-22 19:32 -6.87673 -39.74871 17939 ft 236 kts 302°
2026-04-22 19:33 -6.86842 -39.76292 17942 ft 236 kts 302°
2026-04-22 19:33 -6.86012 -39.77711 17942 ft 235 kts 302°
2026-04-22 19:33 -6.85183 -39.79129 17940 ft 235 kts 302°
2026-04-22 19:33 -6.84354 -39.80545 17942 ft 235 kts 302°
2026-04-22 19:34 -6.83525 -39.81963 17942 ft 235 kts 302°
2026-04-22 19:34 -6.82696 -39.83380 17942 ft 235 kts 302°
2026-04-22 19:34 -6.81867 -39.84796 17942 ft 235 kts 302°
2026-04-22 19:34 -6.81038 -39.86214 17942 ft 235 kts 302°
2026-04-22 19:35 -6.80208 -39.87632 17945 ft 235 kts 302°
2026-04-22 19:35 -6.79378 -39.89050 17945 ft 235 kts 302°
2026-04-22 19:35 -6.78548 -39.90468 17945 ft 235 kts 302°
2026-04-22 19:35 -6.77718 -39.91886 17945 ft 235 kts 302°
2026-04-22 19:36 -6.76899 -39.93284 17945 ft 235 kts 302°
2026-04-22 19:36 -6.76070 -39.94701 17943 ft 235 kts 302°
2026-04-22 19:36 -6.75239 -39.96120 17942 ft 235 kts 302°
2026-04-22 19:36 -6.74409 -39.97538 17942 ft 235 kts 302°
2026-04-22 19:37 -6.73579 -39.98956 17942 ft 235 kts 302°
2026-04-22 19:37 -6.72748 -40.00374 17942 ft 235 kts 302°
2026-04-22 19:37 -6.71919 -40.01790 17942 ft 235 kts 302°
2026-04-22 19:37 -6.71088 -40.03209 17943 ft 235 kts 302°
2026-04-22 19:38 -6.70258 -40.04626 17942 ft 235 kts 302°
2026-04-22 19:38 -6.69427 -40.06044 17942 ft 235 kts 302°
2026-04-22 19:38 -6.68596 -40.07462 17939 ft 236 kts 302°
2026-04-22 19:38 -6.67764 -40.08882 17940 ft 236 kts 302°
2026-04-22 19:39 -6.66931 -40.10304 17939 ft 236 kts 302°
2026-04-22 19:39 -6.66096 -40.11728 17939 ft 236 kts 302°
2026-04-22 19:39 -6.65262 -40.13151 17941 ft 236 kts 302°
2026-04-22 19:39 -6.64428 -40.14574 17942 ft 236 kts 302°
2026-04-22 19:40 -6.63594 -40.15997 17942 ft 236 kts 302°
2026-04-22 19:40 -6.62760 -40.17422 17941 ft 236 kts 302°
2026-04-22 19:40 -6.61924 -40.18846 17936 ft 236 kts 302°
2026-04-22 19:40 -6.61090 -40.20268 17936 ft 236 kts 302°
2026-04-22 19:41 -6.60256 -40.21691 17936 ft 236 kts 302°
2026-04-22 19:41 -6.59422 -40.23113 17936 ft 236 kts 302°
2026-04-22 19:41 -6.58589 -40.24534 17935 ft 236 kts 302°
2026-04-22 19:41 -6.57756 -40.25954 17936 ft 236 kts 302°
2026-04-22 19:42 -6.56923 -40.27374 17938 ft 236 kts 302°
2026-04-22 19:42 -6.56090 -40.28794 17938 ft 236 kts 302°
2026-04-22 19:42 -6.55258 -40.30213 17938 ft 236 kts 302°
2026-04-22 19:42 -6.54425 -40.31632 17939 ft 236 kts 302°
2026-04-22 19:43 -6.52759 -40.34471 17941 ft 236 kts 302°
2026-04-22 19:43 -6.51926 -40.35892 17942 ft 236 kts 302°
2026-04-22 19:43 -6.51092 -40.37312 17942 ft 236 kts 302°
2026-04-22 19:44 -6.50259 -40.38732 17944 ft 236 kts 302°
2026-04-22 19:44 -6.49426 -40.40152 17944 ft 236 kts 302°
2026-04-22 19:44 -6.48592 -40.41571 17942 ft 236 kts 302°
2026-04-22 19:44 -6.47770 -40.42972 17942 ft 236 kts 302°
2026-04-22 19:45 -6.46936 -40.44393 17942 ft 236 kts 302°
2026-04-22 19:45 -6.46102 -40.45812 17941 ft 236 kts 302°
2026-04-22 19:45 -6.45269 -40.47232 17941 ft 236 kts 302°
2026-04-22 19:45 -6.44436 -40.48649 17948 ft 235 kts 302°
2026-04-22 19:46 -6.43604 -40.50067 17947 ft 235 kts 302°
2026-04-22 19:46 -6.42771 -40.51485 17947 ft 236 kts 302°
2026-04-22 19:46 -6.41937 -40.52903 17947 ft 236 kts 302°
2026-04-22 19:46 -6.41105 -40.54320 17947 ft 235 kts 302°
2026-04-22 19:47 -6.40274 -40.55736 17947 ft 235 kts 302°
2026-04-22 19:47 -6.39443 -40.57151 17953 ft 235 kts 302°
2026-04-22 19:47 -6.38891 -40.58089 17953 ft 235 kts 302°
2026-04-22 19:47 -6.37778 -40.59983 17953 ft 236 kts 302°
2026-04-22 19:48 -6.36945 -40.61401 17953 ft 236 kts 303°
2026-04-22 19:48 -6.36109 -40.62822 17953 ft 236 kts 302°
2026-04-22 19:48 -6.35275 -40.64241 17953 ft 236 kts 302°
2026-04-22 19:48 -6.34441 -40.65661 17947 ft 236 kts 302°
2026-04-22 19:49 -6.33605 -40.67083 17947 ft 237 kts 302°
2026-04-22 19:49 -6.32768 -40.68508 17947 ft 236 kts 302°
2026-04-22 19:49 -6.31932 -40.69929 17951 ft 236 kts 302°
2026-04-22 19:49 -6.31095 -40.71352 17950 ft 236 kts 302°
2026-04-22 19:50 -6.30259 -40.72775 17953 ft 236 kts 302°
2026-04-22 19:50 -6.29422 -40.74197 17955 ft 236 kts 302°
2026-04-22 19:50 -6.28585 -40.75619 17955 ft 237 kts 302°
2026-04-22 19:50 -6.27747 -40.77044 17956 ft 237 kts 302°
2026-04-22 19:51 -6.26908 -40.78470 17954 ft 237 kts 302°
2026-04-22 19:51 -6.26069 -40.79897 17953 ft 237 kts 303°
2026-04-22 19:51 -6.25231 -40.81322 17953 ft 237 kts 303°
2026-04-22 19:51 -6.24393 -40.82747 17953 ft 237 kts 303°
2026-04-22 19:52 -6.23555 -40.84170 17956 ft 237 kts 302°
2026-04-22 19:52 -6.22729 -40.85573 17956 ft 236 kts 302°
2026-04-22 19:52 -6.21893 -40.86995 17955 ft 236 kts 302°
2026-04-22 19:52 -6.21058 -40.88415 17955 ft 236 kts 302°
2026-04-22 19:53 -6.20220 -40.89836 17952 ft 236 kts 303°
2026-04-22 19:53 -6.19385 -40.91256 17952 ft 236 kts 303°
2026-04-22 19:53 -6.18819 -40.92216 17952 ft 236 kts 302°
2026-04-22 19:53 -6.17712 -40.94097 17951 ft 236 kts 302°
2026-04-22 19:54 -6.16876 -40.95518 17953 ft 236 kts 302°
2026-04-22 19:54 -6.16039 -40.96939 17953 ft 236 kts 302°
2026-04-22 19:54 -6.15203 -40.98358 17952 ft 236 kts 302°
2026-04-22 19:54 -6.14369 -40.99774 17953 ft 235 kts 302°
2026-04-22 19:55 -6.13535 -41.01190 17953 ft 236 kts 302°
2026-04-22 19:55 -6.12699 -41.02609 17952 ft 236 kts 302°
2026-04-22 19:55 -6.11865 -41.04026 17952 ft 236 kts 302°
2026-04-22 19:55 -6.11030 -41.05442 17953 ft 235 kts 302°
2026-04-22 19:56 -6.10197 -41.06858 17952 ft 235 kts 302°
2026-04-22 19:56 -6.09364 -41.08271 17952 ft 235 kts 302°
2026-04-22 19:56 -6.08530 -41.09687 17950 ft 235 kts 302°
2026-04-22 19:56 -6.07697 -41.11101 17949 ft 235 kts 302°
2026-04-22 19:57 -6.06863 -41.12516 17950 ft 235 kts 302°
2026-04-22 19:57 -6.06029 -41.13931 17949 ft 236 kts 302°
2026-04-22 19:57 -6.05194 -41.15347 17950 ft 235 kts 302°
2026-04-22 19:57 -6.04360 -41.16762 17950 ft 235 kts 302°
2026-04-22 19:58 -6.03526 -41.18177 17945 ft 236 kts 302°
2026-04-22 19:58 -6.02691 -41.19593 17945 ft 236 kts 302°
2026-04-22 19:58 -6.01854 -41.21014 17944 ft 236 kts 302°
2026-04-22 19:58 -6.01019 -41.22429 17943 ft 235 kts 302°
2026-04-22 19:59 -6.00186 -41.23843 17944 ft 235 kts 302°
2026-04-22 20:00 -5.95185 -41.32321 17937 ft 235 kts 303°
2026-04-22 20:00 -5.94350 -41.33735 17934 ft 235 kts 302°
2026-04-22 20:01 -5.93516 -41.35149 17930 ft 235 kts 302°
2026-04-22 20:01 -5.92693 -41.36544 17930 ft 235 kts 302°
2026-04-22 20:01 -5.91847 -41.37977 17930 ft 235 kts 302°
2026-04-22 20:01 -5.91026 -41.39370 17930 ft 235 kts 302°
2026-04-22 20:02 -5.90193 -41.40780 17930 ft 235 kts 302°
2026-04-22 20:02 -5.89361 -41.42191 17930 ft 235 kts 302°
2026-04-22 20:02 -5.88528 -41.43602 17927 ft 235 kts 302°
2026-04-22 20:02 -5.87693 -41.45016 17928 ft 235 kts 302°
2026-04-22 20:03 -5.86859 -41.46429 17927 ft 235 kts 302°
2026-04-22 20:03 -5.86026 -41.47840 17927 ft 235 kts 302°
2026-04-22 20:03 -5.85193 -41.49251 17924 ft 235 kts 302°
2026-04-22 20:03 -5.84361 -41.50660 17927 ft 235 kts 302°
2026-04-22 20:04 -5.83528 -41.52069 17922 ft 235 kts 302°
2026-04-22 20:04 -5.82696 -41.53480 17921 ft 235 kts 302°
2026-04-22 20:04 -5.81863 -41.54889 17921 ft 235 kts 302°
2026-04-22 20:04 -5.81301 -41.55841 17921 ft 235 kts 302°
2026-04-22 20:05 -5.80469 -41.57250 17921 ft 235 kts 302°
2026-04-22 20:05 -5.79635 -41.58661 17921 ft 235 kts 302°
2026-04-22 20:05 -5.78803 -41.60070 17921 ft 235 kts 302°
2026-04-22 20:05 -5.77970 -41.61480 17919 ft 235 kts 302°
2026-04-22 20:06 -5.77137 -41.62890 17919 ft 235 kts 302°
2026-04-22 20:06 -5.76315 -41.64281 17918 ft 235 kts 302°
2026-04-22 20:06 -5.75482 -41.65690 17918 ft 235 kts 302°
2026-04-22 20:06 -5.74650 -41.67099 17918 ft 235 kts 302°
2026-04-22 20:07 -5.73817 -41.68508 17918 ft 235 kts 302°
2026-04-22 20:07 -5.72984 -41.69918 17913 ft 235 kts 302°
2026-04-22 20:07 -5.72150 -41.71327 17913 ft 235 kts 302°
2026-04-22 20:07 -5.71317 -41.72736 17913 ft 235 kts 302°
2026-04-22 20:08 -5.70484 -41.74146 17912 ft 235 kts 302°
2026-04-22 20:08 -5.69652 -41.75553 17913 ft 235 kts 302°
2026-04-22 20:08 -5.68819 -41.76962 17919 ft 235 kts 302°
2026-04-22 20:08 -5.67985 -41.78373 17919 ft 235 kts 302°
2026-04-22 20:09 -5.67150 -41.79785 17909 ft 235 kts 302°
2026-04-22 20:09 -5.66314 -41.81198 17909 ft 235 kts 302°
2026-04-22 20:09 -5.65478 -41.82611 17910 ft 236 kts 302°
2026-04-22 20:09 -5.64641 -41.84026 17910 ft 236 kts 302°
2026-04-22 20:10 -5.63804 -41.85442 17910 ft 236 kts 302°
2026-04-22 20:10 -5.62966 -41.86859 17910 ft 236 kts 302°
2026-04-22 20:10 -5.62127 -41.88276 17911 ft 236 kts 302°
2026-04-22 20:10 -5.61289 -41.89693 17910 ft 236 kts 302°
2026-04-22 20:11 -5.60450 -41.91111 17911 ft 236 kts 302°
2026-04-22 20:11 -5.59612 -41.92528 17910 ft 236 kts 302°
2026-04-22 20:11 -5.58773 -41.93945 17910 ft 236 kts 302°
2026-04-22 20:11 -5.57934 -41.95362 17908 ft 236 kts 302°
2026-04-22 20:12 -5.57096 -41.96779 17914 ft 236 kts 302°
2026-04-22 20:12 -5.56257 -41.98197 17913 ft 236 kts 302°
2026-04-22 20:12 -5.55418 -41.99615 17912 ft 236 kts 302°
2026-04-22 20:12 -5.54578 -42.01033 17913 ft 236 kts 302°
2026-04-22 20:13 -5.53738 -42.02452 17907 ft 236 kts 302°
2026-04-22 20:13 -5.52898 -42.03871 17907 ft 237 kts 302°
2026-04-22 20:13 -5.52057 -42.05290 17907 ft 236 kts 302°
2026-04-22 20:13 -5.51217 -42.06709 17907 ft 237 kts 302°
2026-04-22 20:14 -5.50377 -42.08128 17905 ft 237 kts 302°
2026-04-22 20:14 -5.49536 -42.09549 17905 ft 237 kts 302°
2026-04-22 20:14 -5.48695 -42.10969 17905 ft 237 kts 302°
2026-04-22 20:14 -5.47866 -42.12368 17904 ft 237 kts 302°
2026-04-22 20:15 -5.47024 -42.13788 17905 ft 237 kts 302°
2026-04-22 20:15 -5.46183 -42.15208 17905 ft 237 kts 302°
2026-04-22 20:15 -5.45342 -42.16629 17905 ft 237 kts 302°
2026-04-22 20:15 -5.44501 -42.18048 17905 ft 237 kts 302°
2026-04-22 20:16 -5.43660 -42.19467 17902 ft 237 kts 302°
2026-04-22 20:16 -5.42819 -42.20888 17905 ft 237 kts 302°
2026-04-22 20:16 -5.41999 -42.22260 17896 ft 209 kts 303°
2026-04-22 20:16 -5.41341 -42.23359 17879 ft 161 kts 302°
2026-04-22 20:17 -5.40855 -42.24227 17837 ft 126 kts 302°
2026-04-22 20:17 -5.40437 -42.24961 17513 ft 120 kts 303°
2026-04-22 20:17 -5.40024 -42.25660 17228 ft 111 kts 303°
2026-04-22 20:17 -5.39682 -42.26307 16775 ft 85 kts 293°
2026-04-22 20:18 -5.39418 -42.26570 11822 ft 40 kts 47°